Phoenix-Mesa Gateway Airport, AZ

4:46 AM MST on August 19, 2017 (GMT -0700)
Phoenix-Mesa Gateway Airport

Weather History for KIWA - February, 2013

Change the Weather History Date:

Monday, February 11, 2013

  Actual Average Record
Temperature  
Mean Temperature 44 °F -  
Max Temperature 51 °F 65 °F 82 °F (2012)
Min Temperature 37 °F 42 °F 35 °F (1999)
Degree Days  
Heating Degree Days 21    
Moisture  
Dew Point 33 °F    
Average Humidity 70    
Maximum Humidity 87    
Minimum Humidity 50    
Precipitation  
Precipitation 0.00 in - - ()
Sea Level Pressure  
Sea Level Pressure 30.06 in    
Wind  
Wind Speed 4 mph (SE)    
Max Wind Speed 12 mph    
Max Gust Speed 17 mph    
Visibility 12 miles    
Events      
Averages and records for this station are not official NWS values.
T = Trace of Precipitation, MM = Missing Value Source: NWS Daily Summary

Daily Weather History Graph

Daily Weather History Graph

Search for Another Location

Airport or City:

Trip Planner

Search our weather history database for the weather conditions in past years. The results will help you decide how hot, cold, wet, or windy it might be!

Date:

Astronomy

Feb. 11, 2013 Rise Set
Actual Time 7:14 AM MST 6:08 PM MST
Civil Twilight 6:48 AM MST 6:33 PM MST
Nautical Twilight 6:19 AM MST 7:02 PM MST
Astronomical Twilight 5:50 AM MST 7:31 PM MST
Moon 7:48 AM MST (2/11) 7:59 PM MST (2/11)
Length of Visible Light 11h 45m
Length of Day
10h 54m
Waxing Crescent, 3% of the Moon is Illuminated
Feb 11
Waxing Crescent
Feb 17
First Quarter
Feb 25
Full
Mar 4
Last Quarter
Mar 11
New

Hourly Weather History & Observations

Time (MST) Temp. Windchill Dew Point Humidity Pressure Visibility Wind Dir Wind Speed Gust Speed Precip Events Conditions
12:15 AM 41.0 °F 38.0 °F 32.0 °F 70% 30.00 in 10.0 mi ESE 4.6 mph - N/A   Clear
12:35 AM 41.0 °F 38.0 °F 32.0 °F 70% 29.99 in 10.0 mi ESE 4.6 mph - N/A   Clear
12:55 AM 41.0 °F 38.0 °F 32.0 °F 70% 29.99 in 10.0 mi ESE 4.6 mph - N/A   Clear
1:15 AM 41.0 °F 39.0 °F 32.0 °F 70% 29.99 in 10.0 mi East 3.5 mph - N/A   Clear
1:35 AM 41.0 °F - 32.0 °F 70% 30.00 in 10.0 mi Calm Calm - N/A   Clear
1:55 AM 41.0 °F - 32.0 °F 70% 30.00 in 10.0 mi Calm Calm - N/A   Clear
2:15 AM 41.0 °F - 32.0 °F 70% 30.00 in 10.0 mi Calm Calm - N/A   Clear
2:35 AM 41.0 °F 37.1 °F 32.0 °F 70% 29.99 in 10.0 mi SSE 5.8 mph - N/A   Clear
2:55 AM 41.0 °F 37.1 °F 32.0 °F 70% 29.99 in 10.0 mi SSE 5.8 mph - N/A   Clear
3:15 AM 41.0 °F 37.1 °F 32.0 °F 70% 29.98 in 10.0 mi SSE 5.8 mph - N/A   Clear
3:35 AM 41.0 °F 38.0 °F 32.0 °F 70% 29.98 in 10.0 mi SSE 4.6 mph - N/A   Clear
3:55 AM 41.0 °F 39.0 °F 32.0 °F 70% 29.98 in 10.0 mi SSW 3.5 mph - N/A   Clear
4:15 AM 41.0 °F - 32.0 °F 70% 29.98 in 10.0 mi Calm Calm - N/A   Clear
4:35 AM 41.0 °F - 32.0 °F 70% 29.98 in 10.0 mi Calm Calm - N/A   Clear
4:55 AM 41.0 °F 38.0 °F 32.0 °F 70% 29.98 in 10.0 mi East 4.6 mph - N/A   Clear
5:15 AM 41.0 °F 38.0 °F 32.0 °F 70% 29.98 in 10.0 mi East 4.6 mph - N/A   Clear
5:47 AM 41.0 °F 37.1 °F 32.0 °F 70% 29.98 in 20.0 mi East 5.8 mph - N/A   Mostly Cloudy
6:47 AM 42.8 °F 40.1 °F 33.8 °F 70% 30.00 in 20.0 mi East 4.6 mph - N/A   Mostly Cloudy
7:47 AM 42.8 °F 41.1 °F 30.2 °F 61% 30.02 in 30.0 mi Variable 3.5 mph - N/A   Mostly Cloudy
8:47 AM 44.6 °F 42.2 °F 33.8 °F 66% 30.05 in 30.0 mi North 4.6 mph - N/A   Mostly Cloudy
9:47 AM 46.4 °F 44.3 °F 30.2 °F 53% 30.07 in 25.0 mi East 4.6 mph - N/A   Mostly Cloudy
10:47 AM 44.6 °F 38.8 °F 37.4 °F 76% 30.04 in 25.0 mi NNW 11.5 mph - N/A   Light Drizzle
1:50 PM 48.2 °F - 35.6 °F 62% 30.08 in 30.0 mi North 10.4 mph 16.1 mph N/A   Mostly Cloudy
1:53 PM 46.4 °F 42.4 °F 37.4 °F 71% 30.09 in 30.0 mi North 8.1 mph - N/A   Mostly Cloudy
2:47 PM 48.2 °F - 35.6 °F 62% 30.06 in 30.0 mi NNE 9.2 mph 17.3 mph N/A   Mostly Cloudy
3:49 PM 51.8 °F - 33.8 °F 50% 30.05 in 30.0 mi WSW 5.8 mph - N/A   Mostly Cloudy
4:47 PM 51.8 °F - 33.8 °F 50% 30.07 in 20.0 mi NW 8.1 mph - N/A   Mostly Cloudy
5:47 PM 48.2 °F - 33.8 °F 58% 30.08 in 20.0 mi NW 9.2 mph - N/A   Mostly Cloudy
6:47 PM 46.4 °F 42.4 °F 35.6 °F 66% 30.10 in 20.0 mi West 8.1 mph - N/A   Scattered Clouds
7:47 PM 42.8 °F - 35.6 °F 76% 30.12 in 20.0 mi Calm Calm - N/A   Clear
7:55 PM 42.8 °F 41.1 °F 33.8 °F 70% 30.13 in 10.0 mi WSW 3.5 mph - N/A   Clear
8:15 PM 42.8 °F 41.1 °F 33.8 °F 70% 30.13 in 10.0 mi WSW 3.5 mph - N/A   Clear
8:35 PM 42.8 °F 41.1 °F 33.8 °F 70% 30.14 in 10.0 mi WSW 3.5 mph - N/A   Clear
8:47 PM 42.8 °F - 35.6 °F 76% 30.14 in 20.0 mi Calm Calm - N/A   Clear
8:55 PM 41.0 °F 39.0 °F 33.8 °F 76% 30.14 in 10.0 mi SW 3.5 mph - N/A   Clear
9:15 PM 41.0 °F 39.0 °F 33.8 °F 76% 30.15 in 10.0 mi WSW 3.5 mph - N/A   Clear
9:35 PM 41.0 °F - 33.8 °F 76% 30.15 in 10.0 mi Calm Calm - N/A   Clear
9:55 PM 41.0 °F - 33.8 °F 76% 30.16 in 10.0 mi Calm Calm - N/A   Clear
10:15 PM 41.0 °F - 33.8 °F 76% 30.17 in 10.0 mi Calm Calm - N/A   Clear
10:35 PM 41.0 °F - 33.8 °F 76% 30.17 in 10.0 mi Calm Calm - N/A   Clear
10:55 PM 37.4 °F 32.8 °F 32.0 °F 81% 30.17 in 10.0 mi SSE 5.8 mph - N/A   Clear
11:15 PM 37.4 °F 34.9 °F 32.0 °F 81% 30.17 in 10.0 mi SE 3.5 mph - N/A   Clear
11:35 PM 37.4 °F 32.8 °F 32.0 °F 81% 30.18 in 10.0 mi East 5.8 mph - N/A   Clear
11:55 PM 37.4 °F 33.8 °F 33.8 °F 87% 30.20 in 10.0 mi ESE 4.6 mph - N/A   Clear